Aeroporto :
LOGIN :

Iscrizione | Disclaimer

   EN    FR    IT 

 










Sommario :    VFR   VFR Marginale   IFR   IFR Intensivo   IFR Molto Intensivo
Visibilità : 
Base nubi : 
>= 8 km
>= 3000ft
5 / 8 km
1000 / 3000 ft
1500m / 5 km
500 / 1000 ft
800 / 1500m
200 / 500 ft
< 800m
< 200 ft
Simboli :   Temporali  Nebbia  Neve Forte  Precipitazioni Forti  Vento > 20 kt
SIGMETs :   Varie  Temporali  Ghiacco  Turbolenza  Onda orograficha  Ceneri Vulcaniche







- Altitudine del aeroporto : 459 ft
- Codice IATA : CER
- Carte del aeroporto


LFRC - Cherbourg / Maupertus

ULTIMO METAR :
  • 170500Z AUTO 32015KT 290V350 9999 BKN024 BKN044 BKN052 06/01 Q1007

METARs OBSOLETI :
  • 170430Z AUTO 31016G28KT 290V350 9999 BKN023 BKN032 OVC038 07/02 Q1007
  • 170400Z AUTO 30019G30KT 280V340 9999 BKN019 BKN026 OVC031 07/02 Q1006
  • 170330Z AUTO 30020G31KT 9999 BKN017/// BKN022/// OVC031/// ///TCU 07/03 Q1006
  • 170300Z AUTO 29021KT 9999 BKN021 BKN027 BKN033 07/03 Q1005
  • 170230Z AUTO 29019KT 9999 BKN020 BKN026 OVC035 07/03 Q1005

Previsioni scadute.
Nessun NOTAM noto per questo aeroporto.



MetMap, La meteo Aeronautica in un colpo d'occhio ! - Copyright ORBIFLY Dicembre 2007 - Disclaimer

ORBIFLY MET'MAP TEAM :

Programmazione e sviluppo : Alexandra Zaïnal
Concezione e sviluppo : Baudouin d'Aumeries
Co-Programmazione e sviluppo : Marc-Olivier Méhu
Supporto tecnico e logistico : Manuel Goepfert
Aiuto per la traduzione : Arnaldo La Scala

Contatto : metmap@orbifly.com




FONTI E CREDITI :

   NOAA